logo tempoitalia

Diretta Meteo Malaga, Spagnalunedì 31 agosto ore 07:30

Mappa
Sereno 17 °C Sereno 24 Ore: T.min 16 T.max 27
Ponente Ovest Km/h 9.3 Punto di rugiada: 9 °C Umidità: 59% Visibilità: 10 Km
Il sole sorge alle: 07:48 Il sole tramonta alle: 20:48
31 Agosto 2026 07:30 tempo osservato: Sereno Sereno 17 59 1016 vento: Nord O 9.3
31 Agosto 2026 07:00 tempo osservato: Sereno Sereno 16 67 1016 vento: Nord O/NO 16.7
31 Agosto 2026 06:30 tempo osservato: Sereno Sereno 17 63 1016 vento: Nord O/NO 14.8
31 Agosto 2026 06:00 tempo osservato: Sereno Sereno 17 63 1016 vento: Nord O/NO 14.8
31 Agosto 2026 05:30 tempo osservato: Sereno Sereno 16 72 1016 vento: Nord O/NO 16.7
31 Agosto 2026 05:00 tempo osservato: Sereno Sereno 17 67 1016 vento: Nord O/NO 14.8
31 Agosto 2026 04:30 tempo osservato: Sereno Sereno 17 72 1017 vento: Nord O/NO 14.8
31 Agosto 2026 04:00 tempo osservato: Sereno Sereno 17 72 1017 vento: Nord NO 11.1
31 Agosto 2026 03:30 tempo osservato: Sereno Sereno 19 72 1017 vento: Nord O 14.8
31 Agosto 2026 03:00 tempo osservato: Sereno Sereno 18 77 1017 vento: Nord O/NO 7.4
31 Agosto 2026 02:30 tempo osservato: Sereno Sereno 19 77 1018 vento: Nord N 5.5
31 Agosto 2026 02:00 tempo osservato: Sereno Sereno 19 77 1018 vento: Nord N 1.8
31 Agosto 2026 01:30 tempo osservato: Sereno Sereno 19 82 1018 vento: Nord N 1.8
31 Agosto 2026 01:00 tempo osservato: Sereno Sereno 19 82 1018 vento: Nord N 0
31 Agosto 2026 00:30 tempo osservato: Sereno Sereno 20 72 1017 vento: Nord N 0
31 Agosto 2026 00:00 tempo osservato: Sereno Sereno 20 77 1017 vento: Nord N 0
30 Agosto 2026 23:30 tempo osservato: Sereno Sereno 20 77 1017 vento: Nord N 0
30 Agosto 2026 23:00 tempo osservato: Sereno Sereno 20 77 1017 vento: Nord N 1.8
30 Agosto 2026 22:30 tempo osservato: Sereno Sereno 21 73 1017 vento: Nord N 3.7
30 Agosto 2026 22:00 tempo osservato: Sereno Sereno 21 73 1016 vento: Nord S/SE 7.4
30 Agosto 2026 21:30 tempo osservato: Sereno Sereno 21 73 1016 vento: Nord N 5.5
30 Agosto 2026 21:00 tempo osservato: Sereno Sereno 22 68 1016 vento: Nord E/SE 7.4
30 Agosto 2026 20:30 tempo osservato: Sereno Sereno 22 73 1016 vento: Nord E 13
30 Agosto 2026 20:00 tempo osservato: Sereno Sereno 23 68 1016 vento: Nord E/SE 14.8
30 Agosto 2026 19:30 tempo osservato: Sereno Sereno 23 68 1016 vento: Nord E/SE 18.5
30 Agosto 2026 19:00 tempo osservato: Sereno Sereno 24 60 1016 vento: Nord E 20.3
30 Agosto 2026 18:30 tempo osservato: Sereno Sereno 24 60 1016 vento: Nord E/SE 20.3
30 Agosto 2026 18:00 tempo osservato: Sereno Sereno 24 60 1016 vento: Nord E/SE 22.2
30 Agosto 2026 17:30 tempo osservato: Sereno Sereno 25 53 1016 vento: Nord SE 20.3
30 Agosto 2026 17:00 tempo osservato: Sereno Sereno 26 47 1016 vento: Nord E/SE 18.5
30 Agosto 2026 16:30 tempo osservato: Sereno Sereno 26 36 1016 vento: Nord SE 18.5
30 Agosto 2026 16:00 tempo osservato: Sereno Sereno 27 34 1017 vento: Nord E/SE 16.7
30 Agosto 2026 15:30 tempo osservato: Sereno Sereno 27 32 1017 vento: Nord SE 16.7
30 Agosto 2026 15:00 tempo osservato: Sereno Sereno 27 32 1017 vento: Nord SE 16.7
30 Agosto 2026 14:30 tempo osservato: Sereno Sereno 27 39 1017 vento: Nord SE 16.7
30 Agosto 2026 14:00 tempo osservato: Sereno Sereno 27 36 1018 vento: Nord E/SE 14.8
30 Agosto 2026 13:30 tempo osservato: Sereno Sereno 27 42 1018 vento: Nord E/SE 13
30 Agosto 2026 13:00 tempo osservato: Sereno Sereno 26 39 1018 vento: Nord SE 11.1
30 Agosto 2026 12:30 tempo osservato: Sereno Sereno 26 41 1018 vento: Nord E/SE 11.1
30 Agosto 2026 12:00 tempo osservato: Sereno Sereno 25 44 1018 vento: Nord SE 11.1
30 Agosto 2026 11:30 tempo osservato: Sereno Sereno 26 39 1018 vento: Nord E 9.3
30 Agosto 2026 11:00 tempo osservato: Sereno Sereno 25 38 1018 vento: Nord E 7.4
30 Agosto 2026 10:30 tempo osservato: Sereno Sereno 24 43 1018 vento: Nord N 1.8
30 Agosto 2026 10:00 tempo osservato: Sereno Sereno 22 46 1017 vento: Nord N 5.5
30 Agosto 2026 09:30 tempo osservato: Sereno Sereno 20 49 1017 vento: Nord O 9.3
30 Agosto 2026 09:00 tempo osservato: Sereno Sereno 19 52 1017 vento: Nord O 11.1